Wind_Speed
1 2 2 3 3 5 6 6 8 8 8 8 9 11 12 13 13 13 13 13 12 13 13 13 13 13 13 14 14 14 14 14 15 15 15 15 15 16 16 16 17 17 18 18 19 20 20 21 22
1 1 2 2 3 3 4 4 5 6 7 8 8 8 9 11 12 13 13 12 12 12 12 13 13 13 13 14 14 15 15 15 15 15 15 16 16 16 17 17 18 18 19 19 20 20 21 22 22
1 1 2 2 2 3 3 3 3 4 5 6 7 7 8 8 9 11 12 12 12 12 12 13 13 13 13 13 14 15 15 15 15 15 15 16 16 17 17 18 18 19 19 19 20 21 21 22 23
2 1 1 1 2 2 2 2 1 3 4 4 5 6 6 6 7 8 9 11 11 12 12 13 13 13 14 14 14 14 15 15 15 16 16 16 17 18 18 19 19 20 20 21 21 22 22 23 24
4 3 2 1 1 1 1 1 1 2 3 4 5 5 6 6 6 6 7 9 10 11 11 12 12 13 13 14 14 14 15 16 16 17 17 18 19 19 20 20 21 21 22 23 23 23 24 24 25
7 6 4 3 3 3 3 3 3 4 5 6 6 6 6 7 7 7 8 9 10 10 11 12 12 13 13 14 14 15 16 17 17 18 19 19 20 21 21 22 22 23 23 24 24 25 25 25 26
9 8 7 6 6 5 4 5 5 6 6 7 8 8 9 9 9 9 10 10 11 11 12 12 13 14 15 15 16 16 17 18 19 19 20 21 22 22 23 23 24 24 25 25 26 26 26 27 27
13 11 10 9 9 8 7 7 7 7 8 9 10 10 11 11 12 12 12 12 12 13 13 14 15 15 16 16 17 17 18 19 20 20 21 22 23 23 24 24 25 25 26 26 27 28 28 29 29
16 14 13 12 11 11 10 10 9 9 9 10 11 11 11 12 13 14 14 15 15 15 16 16 17 17 18 18 19 19 20 20 21 21 22 23 23 24 24 25 25 26 27 27 28 28 29 30 30
19 17 16 15 14 14 13 13 12 12 12 12 12 12 12 13 14 15 16 17 17 18 18 19 19 20 20 20 21 21 21 21 22 22 22 23 23 24 24 25 25 26 27 27 28 29 30 31 31
22 20 20 18 17 17 16 15 15 14 14 15 14 14 14 15 16 17 18 19 20 20 20 20 21 21 21 22 22 22 22 22 23 23 23 23 23 24 24 25 26 27 27 28 29 30 31 31 32
25 24 24 22 21 20 19 18 18 17 17 17 16 16 17 17 18 19 20 21 22 22 22 22 22 22 22 23 23 23 23 23 23 23 23 23 24 24 25 25 26 27 28 29 30 31 31 32 32
28 27 27 26 25 24 23 22 20 20 21 20 19 19 19 20 20 21 22 23 23 24 24 24 23 23 23 23 24 23 23 23 23 23 23 24 24 25 26 27 28 29 30 31 32 32 33 33 34
31 30 30 29 28 27 26 24 23 23 24 22 22 21 21 21 22 22 23 24 25 25 26 26 25 25 24 25 25 24 24 24 24 24 24 25 26 26 28 29 30 31 31 32 33 33 34 35 35
35 34 32 32 32 31 30 26 26 27 26 25 24 24 24 24 24 24 24 25 26 26 27 27 26 26 26 26 25 25 24 24 24 25 25 26 27 28 29 31 32 32 33 34 34 35 35 36 36
38 37 34 34 36 34 33 28 30 29 28 28 27 26 26 26 26 26 27 27 27 28 28 28 28 27 27 26 26 25 25 25 26 26 27 28 29 30 31 32 33 34 34 35 35 35 36 36 36
40 38 37 37 38 37 36 31 32 32 31 30 30 29 29 29 29 29 29 29 29 29 29 29 29 28 28 27 26 26 26 26 27 27 28 29 30 31 32 33 34 34 35 35 35 35 36 36 37
39 40 40 40 40 40 39 35 34 35 33 32 32 32 31 31 31 31 30 30 30 30 30 30 29 29 28 28 27 27 27 28 28 29 30 31 31 32 33 34 34 35 35 36 36 36 37 37 37
44 44 43 40 42 44 43 40 36 37 36 34 34 34 33 33 33 32 32 31 31 31 31 30 30 30 29 29 29 29 29 29 30 31 32 32 33 33 34 35 35 36 36 37 37 37 38 38 38
44 45 44 42 43 46 45 43 38 38 39 37 36 35 35 35 34 33 33 32 32 32 31 31 31 31 30 30 30 30 30 31 32 32 33 34 34 34 35 36 37 37 38 38 38 38 39 39 40
43 42 41 42 44 48 49 45 39 38 39 38 36 36 36 36 36 35 34 33 33 32 32 32 31 31 31 31 31 32 32 32 33 34 34 35 35 36 37 37 38 38 39 39 40 40 40 41 42
41 40 41 42 44 46 48 48 37 36 38 37 36 36 36 36 36 35 34 34 33 33 32 32 32 32 32 32 32 33 33 34 34 35 36 36 37 38 39 39 39 40 40 40 41 42 42 43 44
40 40 42 43 45 46 44 47 39 34 35 36 37 36 36 36 36 35 34 34 33 33 33 33 33 34 34 34 34 34 35 35 36 36 37 37 38 39 40 40 41 41 42 43 43 44 44 45 45
40 41 42 43 44 46 41 44 42 33 33 35 36 37 36 36 35 34 34 33 33 34 34 34 34 35 35 35 35 35 36 36 36 37 38 39 40 41 41 42 43 43 44 44 45 46 46 46 47
40 39 41 42 43 44 40 42 41 34 33 34 35 35 35 34 34 34 34 33 33 34 34 35 35 35 36 36 36 36 36 37 38 39 40 41 41 42 43 43 44 45 45 46 46 47 48 48 49
38 39 40 41 42 41 41 41 37 34 32 32 33 34 34 34 34 34 34 34 34 34 35 35 36 36 36 37 37 37 37 38 39 40 41 42 43 43 44 45 45 46 47 47 48 48 49 50 50
39 40 39 42 43 43 42 39 34 31 30 31 32 33 33 34 34 34 34 34 34 34 34 35 35 36 36 37 37 38 38 39 41 42 43 43 43 44 45 46 47 47 48 48 49 49 50 51 51
41 40 41 43 44 44 41 37 32 28 29 31 31 32 33 33 34 34 33 33 34 34 34 35 35 36 36 37 38 39 40 41 42 43 44 44 45 46 47 48 48 49 49 50 50 51 51 52 53
41 41 42 43 44 43 41 36 31 28 28 28 30 31 32 33 33 33 33 33 33 33 33 34 35 36 36 38 39 40 41 42 43 44 45 46 47 48 48 49 49 50 51 51 52 52 53 54 55
42 42 42 42 42 41 41 37 31 29 29 29 29 31 31 32 32 32 33 32 32 32 33 34 35 36 38 39 40 41 42 43 44 45 46 47 48 49 49 50 50 51 52 53 53 54 55 55 56
Wind_Direction
147 167 175 184 195 196 203 212 219 223 226 227 227 228 230 232 234 238 240 242 246 248 249 252 255 257 260 263 266 268 269 271 273 274 275 277 278 279 279 280 280 281 281 280 280 280 279 278 278
160 140 145 147 157 176 191 200 210 217 222 225 226 228 230 233 234 236 240 242 247 251 252 254 257 260 263 265 267 268 270 272 274 275 277 278 279 280 280 281 281 282 282 282 281 280 280 279 279
199 142 134 140 142 157 172 177 190 203 213 217 223 228 231 234 233 234 237 243 248 251 254 258 260 262 265 266 266 267 270 272 274 276 277 278 279 280 281 282 283 283 283 283 282 282 281 281 281
241 210 172 158 162 171 157 148 165 197 207 211 219 228 233 237 238 238 240 245 249 252 255 260 262 265 267 268 268 270 271 273 274 276 277 279 280 282 283 283 284 284 284 284 284 283 283 282 282
249 243 228 213 216 218 195 190 216 222 218 223 231 240 243 247 249 249 249 252 253 254 258 261 265 268 270 271 273 274 275 276 278 279 280 281 282 283 283 284 285 285 285 285 284 283 284 284 283
247 249 244 239 237 241 239 234 238 241 234 238 244 251 257 258 258 258 257 258 259 260 262 265 267 269 271 273 276 277 278 279 281 282 283 283 284 284 284 284 285 285 286 285 285 285 284 284 284
249 250 250 248 246 245 248 250 249 251 248 249 252 255 260 263 264 265 264 262 262 264 267 269 270 271 274 276 278 280 281 281 282 283 284 284 284 284 285 285 285 286 286 286 286 285 285 285 284
249 252 253 253 251 249 249 251 252 253 254 257 260 261 263 266 267 269 269 268 267 268 270 272 274 275 277 279 281 282 283 283 283 284 285 285 285 286 286 286 286 286 287 287 286 286 285 284 284
249 251 253 252 252 252 252 253 255 257 259 261 262 264 266 267 269 271 272 272 272 272 273 274 276 278 279 281 282 284 284 284 285 285 285 286 286 287 287 287 287 287 287 287 287 286 285 284 283
249 251 252 252 252 253 254 256 257 259 261 262 263 264 266 267 269 272 273 274 275 275 276 277 278 280 281 282 283 284 284 285 286 287 287 286 287 287 288 289 289 289 288 288 287 287 286 285 284
248 251 253 253 254 255 256 257 259 261 263 263 265 267 267 266 269 271 273 275 276 277 277 278 279 280 281 282 283 284 284 286 287 287 287 287 288 289 290 290 290 290 290 290 290 289 288 287 286
247 249 252 254 254 255 256 257 260 262 264 265 267 269 269 268 269 270 272 274 276 276 277 279 280 281 281 282 282 283 284 286 286 286 287 288 289 289 290 291 291 292 292 291 291 291 290 288 287
245 248 251 253 255 255 256 258 260 264 264 265 268 270 271 270 271 272 272 273 275 276 277 278 280 280 281 281 282 282 283 284 285 285 286 287 288 290 290 291 292 293 293 293 292 291 291 290 288
245 246 250 253 255 255 256 258 261 261 263 266 268 270 272 272 273 274 273 274 274 276 276 277 278 278 279 279 280 281 282 283 283 284 285 287 288 290 291 292 293 293 293 292 292 291 291 290 290
246 247 249 252 254 255 257 259 261 260 264 266 268 270 272 273 275 275 274 274 274 275 276 276 276 277 277 277 278 280 281 281 282 283 284 286 288 290 291 292 293 293 294 293 293 292 291 291 290
247 248 249 251 253 255 257 258 261 262 264 266 268 270 272 273 274 275 275 274 274 274 275 275 275 275 275 275 276 278 279 281 282 283 284 286 287 289 291 292 293 294 294 294 293 293 292 292 291
247 249 249 250 253 255 258 258 262 264 264 266 268 270 271 272 274 275 275 274 274 273 273 273 273 273 273 274 275 276 278 280 281 283 284 286 288 290 291 292 293 293 294 294 294 293 292 292 291
249 249 249 250 253 255 257 258 260 264 265 266 268 270 271 272 274 275 275 274 273 272 271 270 271 271 272 273 274 275 278 280 281 283 284 286 288 290 291 292 293 294 294 294 293 293 292 291 290
247 248 249 250 254 256 257 258 258 263 265 266 267 268 270 271 273 275 275 274 273 271 270 269 269 270 271 272 273 275 277 279 280 282 284 286 288 289 291 292 293 294 294 294 294 293 292 291 289
249 250 251 251 254 256 257 258 259 261 264 265 266 267 269 270 272 274 274 273 272 270 269 269 268 269 269 271 272 274 276 278 280 282 285 287 288 290 292 293 294 295 295 295 294 293 292 291 289
250 252 253 254 253 256 258 257 258 260 263 264 265 265 267 269 270 271 272 272 271 270 268 268 268 268 269 270 272 273 275 278 281 283 286 287 289 291 293 293 294 295 295 295 295 294 293 291 290
252 254 254 254 254 255 259 260 256 258 261 263 264 264 266 267 268 269 270 270 269 268 267 267 268 268 269 270 271 273 276 278 281 284 286 287 289 291 292 293 294 295 296 296 296 294 293 292 291
252 252 253 254 256 256 258 263 260 257 259 262 263 263 264 265 266 268 268 268 268 267 267 267 268 269 269 270 272 274 276 279 281 284 286 288 290 291 292 293 294 295 296 296 296 296 295 294 292
249 250 253 255 257 258 259 263 263 259 258 259 262 263 263 263 265 266 267 267 267 266 266 267 267 268 269 270 272 274 277 279 282 284 287 289 291 292 293 293 295 296 296 297 297 296 296 295 294
249 252 254 257 258 261 261 261 264 263 259 259 260 262 262 262 263 264 265 265 265 265 265 265 265 267 268 270 272 275 278 281 283 285 288 290 292 292 293 294 295 297 297 297 297 297 296 296 295
250 252 254 258 260 261 260 260 262 265 263 260 259 259 259 260 261 263 263 263 264 264 265 265 266 267 269 271 273 276 279 281 284 286 289 290 292 293 294 295 296 297 298 298 298 297 297 297 297
246 249 252 256 258 260 261 262 263 266 264 260 258 257 258 259 260 261 262 263 264 264 264 265 266 267 269 272 274 277 280 282 285 287 289 291 292 293 295 296 297 298 298 299 299 298 298 298 298
244 246 248 252 257 261 263 264 267 264 262 261 259 257 257 258 259 261 261 262 263 263 264 265 267 268 270 273 275 278 281 283 286 288 290 291 293 294 295 296 298 298 299 299 299 299 299 299 298
244 247 249 253 257 261 263 264 265 264 261 259 257 257 257 258 259 260 261 262 263 263 264 265 267 269 271 274 277 280 282 284 287 289 290 292 293 294 296 297 298 299 299 300 299 299 299 299 299
243 245 247 251 255 259 262 262 262 263 260 258 257 257 257 257 258 259 261 262 263 264 264 266 268 270 273 275 278 281 283 286 287 289 291 293 294 295 296 297 298 299 299 300 300 300 299 299 299
Height
5853 5853 5854 5855 5857 5857 5857 5859 5859 5860 5861 5861 5862 5863 5864 5866 5868 5871 5870 5869 5870 5871 5871 5872 5872 5872 5872 5872 5872 5872 5872 5872 5872 5872 5871 5871 5870 5870 5870 5869 5869 5869 5868 5868 5867 5867 5867 5866 5866
5853 5853 5855 5856 5856 5856 5857 5857 5858 5859 5860 5860 5861 5862 5862 5863 5865 5866 5867 5867 5868 5869 5869 5869 5870 5870 5870 5870 5870 5870 5870 5869 5869 5869 5868 5868 5868 5867 5867 5866 5866 5865 5865 5865 5864 5864 5863 5863 5862
5853 5854 5855 5855 5855 5856 5857 5857 5857 5858 5858 5859 5860 5860 5861 5862 5863 5864 5865 5865 5866 5867 5867 5867 5867 5867 5868 5868 5867 5867 5867 5867 5866 5866 5866 5865 5865 5864 5864 5863 5863 5862 5862 5861 5861 5860 5860 5859 5859
5853 5854 5855 5856 5855 5856 5856 5857 5857 5858 5858 5859 5859 5860 5860 5861 5862 5862 5863 5863 5864 5864 5865 5865 5865 5865 5865 5865 5865 5865 5864 5864 5864 5863 5863 5862 5862 5861 5861 5860 5860 5859 5858 5858 5857 5857 5856 5856 5855
5852 5854 5854 5855 5855 5855 5856 5856 5857 5857 5858 5858 5859 5859 5859 5860 5860 5861 5861 5862 5862 5863 5863 5863 5863 5863 5863 5863 5862 5862 5862 5861 5861 5860 5860 5859 5859 5858 5857 5857 5856 5856 5855 5854 5854 5853 5852 5852 5851
5852 5853 5854 5854 5854 5855 5855 5856 5856 5857 5857 5858 5858 5858 5858 5859 5859 5860 5860 5860 5861 5861 5861 5861 5861 5861 5860 5860 5860 5859 5859 5858 5858 5857 5856 5856 5855 5854 5854 5853 5853 5852 5851 5850 5850 5849 5848 5848 5847
5851 5851 5852 5853 5853 5853 5854 5855 5855 5856 5857 5857 5857 5857 5857 5857 5857 5858 5858 5858 5859 5859 5859 5858 5858 5858 5858 5857 5857 5856 5856 5855 5854 5853 5853 5852 5851 5851 5850 5849 5848 5848 5847 5846 5845 5845 5844 5843 5843
5848 5850 5850 5851 5851 5852 5853 5853 5854 5855 5855 5856 5856 5856 5856 5856 5856 5856 5856 5856 5856 5856 5856 5856 5856 5855 5855 5854 5854 5853 5852 5851 5850 5849 5849 5848 5847 5846 5846 5845 5844 5843 5842 5841 5841 5840 5839 5838 5837
5845 5847 5847 5848 5849 5850 5850 5851 5852 5852 5853 5853 5854 5854 5854 5854 5854 5854 5854 5853 5854 5854 5853 5853 5853 5852 5852 5851 5850 5849 5848 5847 5846 5845 5844 5843 5843 5842 5841 5840 5839 5838 5837 5836 5835 5834 5834 5833 5832
5841 5843 5844 5845 5846 5847 5847 5848 5849 5850 5850 5851 5851 5852 5852 5852 5851 5851 5851 5850 5850 5850 5850 5850 5849 5849 5848 5847 5846 5845 5844 5843 5842 5841 5840 5839 5838 5837 5836 5835 5834 5833 5832 5831 5830 5829 5828 5827 5826
5837 5839 5840 5841 5842 5843 5844 5845 5846 5847 5847 5848 5848 5849 5849 5849 5849 5848 5847 5847 5846 5846 5846 5846 5845 5845 5844 5843 5842 5841 5840 5839 5838 5837 5836 5834 5833 5832 5831 5830 5829 5828 5827 5826 5824 5823 5822 5821 5820
5833 5834 5835 5836 5838 5839 5840 5841 5842 5843 5844 5844 5845 5845 5845 5845 5845 5845 5844 5843 5842 5842 5841 5841 5841 5840 5839 5838 5837 5836 5835 5834 5833 5832 5831 5830 5829 5828 5826 5825 5824 5823 5821 5820 5819 5817 5816 5814 5813
5827 5829 5830 5831 5833 5834 5835 5837 5838 5839 5839 5839 5840 5841 5841 5841 5841 5841 5840 5839 5838 5837 5836 5836 5836 5835 5835 5834 5833 5832 5831 5829 5828 5827 5826 5825 5824 5823 5822 5820 5819 5818 5816 5814 5813 5811 5809 5808 5806
5821 5823 5824 5826 5827 5829 5830 5832 5834 5835 5833 5835 5836 5836 5836 5836 5836 5836 5835 5834 5833 5832 5832 5831 5831 5830 5830 5829 5828 5827 5826 5825 5823 5822 5821 5820 5819 5817 5816 5815 5813 5811 5810 5808 5806 5804 5803 5801 5799
5814 5817 5819 5820 5820 5822 5824 5828 5828 5828 5828 5830 5830 5831 5831 5831 5831 5830 5830 5829 5828 5827 5827 5826 5825 5825 5824 5823 5822 5821 5820 5819 5818 5817 5816 5815 5813 5812 5810 5808 5807 5805 5803 5801 5799 5797 5795 5794 5792
5806 5810 5813 5813 5813 5815 5819 5823 5821 5822 5823 5824 5824 5825 5825 5825 5825 5825 5824 5824 5823 5822 5821 5820 5820 5819 5818 5818 5817 5816 5815 5814 5813 5812 5810 5809 5807 5806 5804 5802 5800 5798 5796 5794 5792 5790 5788 5786 5785
5799 5803 5805 5806 5806 5808 5810 5815 5815 5814 5816 5818 5818 5818 5819 5819 5819 5818 5818 5818 5817 5816 5815 5815 5814 5813 5812 5812 5811 5810 5809 5808 5807 5806 5804 5803 5801 5800 5798 5796 5794 5791 5789 5787 5785 5783 5781 5779 5777
5792 5793 5795 5798 5799 5800 5801 5806 5808 5807 5809 5811 5811 5812 5812 5812 5812 5812 5812 5811 5811 5810 5809 5809 5808 5807 5806 5805 5805 5804 5803 5802 5801 5800 5798 5797 5795 5793 5791 5789 5787 5784 5782 5780 5778 5775 5773 5771 5770
5781 5783 5786 5790 5790 5791 5793 5797 5801 5800 5801 5803 5804 5804 5805 5805 5805 5805 5805 5804 5804 5803 5803 5802 5801 5801 5800 5799 5798 5798 5797 5796 5795 5793 5792 5790 5788 5786 5784 5782 5780 5777 5775 5772 5770 5768 5765 5763 5761
5772 5774 5778 5782 5782 5781 5784 5787 5792 5793 5793 5795 5796 5797 5797 5797 5797 5797 5797 5797 5797 5796 5796 5795 5795 5794 5794 5793 5792 5792 5791 5789 5788 5787 5785 5783 5781 5779 5777 5775 5772 5770 5767 5765 5762 5759 5757 5754 5752
5763 5767 5770 5772 5772 5772 5773 5779 5785 5786 5785 5787 5788 5789 5789 5789 5789 5789 5790 5790 5790 5789 5789 5789 5788 5788 5787 5787 5786 5785 5784 5783 5782 5780 5778 5776 5774 5772 5770 5767 5764 5762 5759 5756 5753 5751 5748 5745 5742
5756 5759 5760 5761 5762 5764 5765 5766 5778 5778 5777 5778 5780 5780 5781 5781 5781 5782 5782 5782 5782 5782 5782 5782 5781 5781 5780 5780 5779 5778 5777 5776 5775 5773 5771 5769 5767 5764 5762 5759 5756 5753 5750 5747 5744 5741 5738 5735 5732
5748 5749 5750 5751 5752 5755 5758 5757 5767 5770 5771 5771 5771 5772 5773 5773 5773 5774 5774 5775 5775 5775 5775 5774 5774 5774 5773 5772 5772 5771 5770 5769 5767 5765 5763 5761 5759 5756 5753 5751 5748 5745 5741 5738 5735 5732 5728 5725 5722
5738 5740 5741 5742 5744 5746 5752 5750 5754 5762 5763 5762 5762 5763 5764 5765 5766 5766 5766 5767 5767 5767 5767 5767 5766 5766 5765 5765 5764 5763 5762 5761 5759 5757 5755 5753 5751 5748 5745 5742 5739 5735 5732 5728 5725 5721 5718 5714 5711
5730 5733 5733 5734 5736 5739 5743 5742 5746 5752 5754 5754 5754 5755 5756 5757 5758 5758 5759 5759 5759 5759 5759 5759 5759 5758 5758 5757 5756 5755 5754 5753 5751 5749 5747 5744 5742 5739 5736 5732 5729 5726 5722 5718 5714 5710 5707 5703 5699
5723 5724 5726 5728 5729 5730 5732 5734 5741 5743 5744 5745 5746 5747 5747 5749 5750 5750 5751 5751 5752 5752 5752 5751 5751 5750 5750 5749 5749 5747 5746 5744 5743 5741 5738 5735 5733 5729 5726 5723 5719 5716 5712 5708 5704 5700 5695 5691 5687
5713 5715 5718 5719 5718 5720 5723 5727 5733 5735 5735 5736 5737 5738 5739 5740 5741 5742 5743 5743 5743 5744 5743 5743 5743 5743 5742 5741 5740 5739 5737 5736 5734 5732 5729 5726 5723 5720 5716 5713 5709 5705 5701 5697 5693 5688 5684 5680 5675
5704 5707 5708 5709 5709 5711 5715 5720 5725 5727 5727 5728 5729 5729 5731 5732 5733 5734 5735 5735 5735 5735 5736 5735 5735 5735 5734 5733 5732 5730 5729 5727 5725 5722 5719 5717 5713 5710 5706 5702 5698 5694 5690 5686 5681 5677 5672 5667 5662
5697 5699 5700 5702 5703 5705 5707 5715 5717 5718 5719 5720 5721 5721 5723 5724 5725 5726 5726 5727 5727 5727 5727 5727 5727 5726 5725 5724 5723 5721 5720 5718 5715 5713 5710 5706 5703 5699 5696 5691 5687 5683 5679 5674 5669 5665 5660 5655 5650
5686 5689 5692 5694 5696 5697 5699 5707 5709 5710 5710 5711 5712 5714 5715 5716 5717 5717 5718 5719 5719 5719 5719 5719 5718 5718 5716 5715 5714 5712 5710 5708 5706 5703 5699 5696 5692 5688 5684 5680 5676 5671 5667 5662 5657 5652 5647 5642 5636